This is the latest recevied weather packets stored in our database for station/object HS2LXA-13. If no packets are shown the sender has not sent any weather packets the latest 10 day(s).
| Time | Temp. | Humidity | Pressure | Rain* | Wind** | Luminosity | Snow |
|---|---|---|---|---|---|---|---|
| 1777773648 | 34.44° C | 79% | 1011.5 hPa | 0 mm | - | 0 W/m² | - |
| 1777773045 | 33.33° C | 80% | 1011.4 hPa | 0 mm | - | 0 W/m² | - |
| 1777772445 | 32.78° C | 80% | 1011.3 hPa | 0 mm | - | 0 W/m² | - |
| 1777771841 | 32.22° C | 80% | 1011.2 hPa | 0 mm | - | 0 W/m² | - |
| 1777771244 | 32.78° C | 80% | 1011 hPa | 0 mm | - | 0 W/m² | - |
| 1777770639 | 32.78° C | 81% | 1010.8 hPa | 0 mm | - | 0 W/m² | - |
| 1777770039 | 32.78° C | 81% | 1010.7 hPa | 0 mm | - | 0 W/m² | - |
| 1777769438 | 35° C | 82% | 1010.6 hPa | 0 mm | - | 0 W/m² | - |
| 1777768836 | 33.33° C | 83% | 1010.5 hPa | 0 mm | - | 0 W/m² | - |
| 1777768234 | 36.67° C | 83% | 1010.3 hPa | 0 mm | - | 0 W/m² | - |
| 1777767634 | 34.44° C | 83% | 1010.3 hPa | 0 mm | - | 0 W/m² | - |
| 1777767031 | 33.33° C | 83% | 1010.2 hPa | 0 mm | - | 0 W/m² | - |
| 1777766429 | 30° C | 83% | 1010 hPa | 0 mm | - | 0 W/m² | - |
| 1777765827 | 30° C | 83% | 1009.8 hPa | 0 mm | - | 0 W/m² | - |
| 1777765227 | 30° C | 82% | 1009.7 hPa | 0 mm | - | 0 W/m² | - |
| 1777764627 | 30° C | 82% | 1009.5 hPa | 0 mm | - | 0 W/m² | - |
| 1777764024 | 30° C | 82% | 1009.4 hPa | 0 mm | - | 0 W/m² | - |
| 1777763422 | 30° C | 82% | 1009.3 hPa | 0 mm | - | 0 W/m² | - |
| 1777762821 | 30° C | 82% | 1009.1 hPa | 0 mm | - | 0 W/m² | - |
| 1777762218 | 30° C | 82% | 1009.1 hPa | 0 mm | - | 0 W/m² | - |
| 1777761615 | 30° C | 82% | 1009.1 hPa | 0 mm | - | 0 W/m² | - |
| 1777761018 | 30° C | 82% | 1009.1 hPa | 0 mm | - | 0 W/m² | - |
| 1777760414 | 30° C | 82% | 1008.8 hPa | 0 mm | - | 0 W/m² | - |
| 1777759812 | 30° C | 82% | 1008.6 hPa | 0 mm | - | 0 W/m² | - |
| 1777759212 | 30° C | 82% | 1008.6 hPa | 0 mm | - | 0 W/m² | - |
* Rain latest hour (hover to see other rain measurements)
** Current wind speed in m/s (hover to see current wind gust speed)